• In Uzbekistan
  • List of Countries
  • For 7 days
  • Water Temperature
  • Satellite Maps
  • Weather Map
  • Weather Widgets
  • user-avatar
    Login

    Hourly Weather Roma

    Today, 15 December, Friday

    Time Temperature Precipitation Wind Pressure Humidity
    00:00 +13°C° 0 mm 1 mps 625 mmHg 46%
    01:00 +13°C° 0 mm 1 mps 624 mmHg 47%
    02:00 +12°C° 0 mm 1 mps 624 mmHg 48%
    03:00 +12°C° 0 mm 1 mps 624 mmHg 49%
    04:00 +11°C° 0 mm 1 mps 624 mmHg 50%
    05:00 +10°C° 0 mm 0 mps 624 mmHg 52%
    06:00 +14°C° 0 mm 1 mps 625 mmHg 44%
    07:00 +18°C° 0 mm 1 mps 626 mmHg 36%
    08:00 +20°C° 0 mm 1 mps 628 mmHg 29%
    09:00 +21°C° 0 mm 2 mps 628 mmHg 25%
    10:00 +24°C° 0 mm 2 mps 628 mmHg 22%
    11:00 +26°C° 0 mm 3 mps 628 mmHg 19%
    12:00 +27°C° 0 mm 3 mps 628 mmHg 18%
    13:00 +28°C° 0 mm 3 mps 628 mmHg 17%
    14:00 +29°C° 0 mm 4 mps 628 mmHg 16%
    15:00 +29°C° 0 mm 3 mps 628 mmHg 17%
    16:00 +29°C° 0 mm 3 mps 627 mmHg 17%
    17:00 +29°C° 0 mm 3 mps 627 mmHg 17%
    18:00 +26°C° 0 mm 3 mps 626 mmHg 21%
    19:00 +24°C° 0 mm 2 mps 626 mmHg 25%
    20:00 +21°C° 0 mm 1 mps 625 mmHg 29%
    21:00 +21°C° 0 mm 1 mps 625 mmHg 30%
    22:00 +20°C° 0 mm 1 mps 625 mmHg 30%
    23:00 +20°C° 0 mm 1 mps 625 mmHg 31%

    Tomorrow, 16 December, Saturday

    Time Temperature Precipitation Wind Pressure Humidity
    00:00 +19°C° 0 mm 1 mps 625 mmHg 32%
    01:00 +18°C° 0 mm 2 mps 625 mmHg 33%
    02:00 +17°C° 0 mm 2 mps 625 mmHg 34%
    03:00 +17°C° 0 mm 2 mps 625 mmHg 35%
    04:00 +16°C° 0 mm 2 mps 625 mmHg 37%
    05:00 +16°C° 0 mm 2 mps 625 mmHg 38%
    06:00 +18°C° 0 mm 3 mps 626 mmHg 42%
    07:00 +20°C° 0 mm 4 mps 627 mmHg 46%
    08:00 +22°C° 0 mm 4 mps 628 mmHg 50%
    09:00 +25°C° 0 mm 5 mps 628 mmHg 46%
    10:00 +27°C° 0 mm 5 mps 628 mmHg 42%
    11:00 +28°C° 0 mm 5 mps 628 mmHg 38%
    12:00 +29°C° 0 mm 5 mps 628 mmHg 33%
    13:00 +30°C° 0 mm 5 mps 628 mmHg 28%
    14:00 +33°C° 0 mm 5 mps 627 mmHg 22%
    15:00 +32°C° 0 mm 5 mps 627 mmHg 22%
    16:00 +32°C° 0 mm 5 mps 626 mmHg 21%
    17:00 +32°C° 0 mm 4 mps 626 mmHg 20%
    18:00 +29°C° 0 mm 3 mps 626 mmHg 24%
    19:00 +27°C° 0 mm 2 mps 625 mmHg 28%
    20:00 +24°C° 0 mm 1 mps 625 mmHg 32%
    21:00 +22°C° 0.3 mm 3 mps 625 mmHg 41%
    22:00 +21°C° 0.3 mm 5 mps 626 mmHg 50%
    23:00 +20°C° 0.3 mm 6 mps 626 mmHg 59%

    Day after tomorrow, 17 December, Sunday

    Time Temperature Precipitation Wind Pressure Humidity
    00:00 +19°C° 1.3 mm 5 mps 626 mmHg 65%
    01:00 +18°C° 1.3 mm 4 mps 625 mmHg 71%
    02:00 +17°C° 1.3 mm 2 mps 625 mmHg 76%
    03:00 +17°C° 0.5 mm 2 mps 625 mmHg 77%
    04:00 +17°C° 0.5 mm 2 mps 625 mmHg 78%
    05:00 +17°C° 0.5 mm 2 mps 624 mmHg 79%
    06:00 +19°C° 0 mm 2 mps 625 mmHg 72%
    07:00 +20°C° 0 mm 2 mps 626 mmHg 65%
    08:00 +21°C° 0 mm 3 mps 626 mmHg 58%
    09:00 +22°C° 0.2 mm 3 mps 627 mmHg 55%
    10:00 +23°C° 0.2 mm 4 mps 627 mmHg 51%
    11:00 +25°C° 0.2 mm 5 mps 627 mmHg 48%
    12:00 +23°C° 1 mm 4 mps 626 mmHg 54%
    13:00 +21°C° 1 mm 3 mps 626 mmHg 60%
    14:00 +20°C° 1 mm 3 mps 625 mmHg 66%
    15:00 +21°C° 0.2 mm 3 mps 625 mmHg 59%
    16:00 +24°C° 0.2 mm 2 mps 625 mmHg 52%
    17:00 +25°C° 0.2 mm 2 mps 625 mmHg 46%
    18:00 +24°C° 0.6 mm 2 mps 625 mmHg 54%
    19:00 +21°C° 0.6 mm 2 mps 624 mmHg 62%
    20:00 +20°C° 0.6 mm 2 mps 624 mmHg 70%
    21:00 +19°C° 0.1 mm 2 mps 624 mmHg 70%
    22:00 +19°C° 0.1 mm 2 mps 624 mmHg 71%
    23:00 +20°C° 0.1 mm 1 mps 624 mmHg 72%

    18 December, Monday

    Time Temperature Precipitation Wind Pressure Humidity
    00:00 +20°C° 0.4 mm 1 mps 624 mmHg 73%
    01:00 +19°C° 0.4 mm 1 mps 624 mmHg 74%
    02:00 +19°C° 0.4 mm 1 mps 623 mmHg 75%
    03:00 +19°C° 0.3 mm 1 mps 623 mmHg 76%
    04:00 +19°C° 0.3 mm 1 mps 623 mmHg 77%
    05:00 +18°C° 0.3 mm 1 mps 623 mmHg 79%
    06:00 +18°C° 0.4 mm 2 mps 623 mmHg 75%
    07:00 +19°C° 0.4 mm 2 mps 624 mmHg 71%
    08:00 +20°C° 0.4 mm 3 mps 624 mmHg 67%
    09:00 +22°C° 0.4 mm 4 mps 624 mmHg 61%
    10:00 +23°C° 0.4 mm 4 mps 624 mmHg 55%
    11:00 +25°C° 0.4 mm 4 mps 625 mmHg 50%
    12:00 +23°C° 0.5 mm 4 mps 624 mmHg 52%
    13:00 +22°C° 0.5 mm 3 mps 623 mmHg 54%
    14:00 +22°C° 0.5 mm 3 mps 622 mmHg 56%
    15:00 +22°C° 0.4 mm 3 mps 622 mmHg 58%
    16:00 +21°C° 0.4 mm 4 mps 623 mmHg 59%
    17:00 +21°C° 0.4 mm 4 mps 623 mmHg 60%
    18:00 +20°C° 0.6 mm 3 mps 623 mmHg 66%
    19:00 +19°C° 0.6 mm 3 mps 623 mmHg 72%
    20:00 +18°C° 0.6 mm 2 mps 623 mmHg 78%
    21:00 +17°C° 0 mm 2 mps 622 mmHg 79%
    22:00 +17°C° 0 mm 2 mps 622 mmHg 80%
    23:00 +16°C° 0 mm 2 mps 622 mmHg 81%

    19 December, Tuesday

    Time Temperature Precipitation Wind Pressure Humidity
    00:00 +16°C° 0.1 mm 2 mps 622 mmHg 80%
    01:00 +16°C° 0.1 mm 2 mps 622 mmHg 78%
    02:00 +16°C° 0.1 mm 2 mps 621 mmHg 77%
    03:00 +16°C° 0.2 mm 2 mps 621 mmHg 77%
    04:00 +16°C° 0.2 mm 2 mps 621 mmHg 77%
    05:00 +15°C° 0.2 mm 2 mps 621 mmHg 77%
    06:00 +17°C° 0 mm 2 mps 622 mmHg 71%
    07:00 +19°C° 0 mm 3 mps 623 mmHg 65%
    08:00 +21°C° 0 mm 4 mps 624 mmHg 58%
    09:00 +23°C° 0 mm 5 mps 624 mmHg 50%
    10:00 +26°C° 0 mm 6 mps 624 mmHg 41%
    11:00 +28°C° 0 mm 8 mps 624 mmHg 32%
    12:00 +28°C° 0 mm 8 mps 624 mmHg 29%
    13:00 +29°C° 0 mm 8 mps 624 mmHg 26%
    14:00 +29°C° 0 mm 9 mps 624 mmHg 23%
    15:00 +29°C° 0 mm 9 mps 624 mmHg 21%
    16:00 +29°C° 0 mm 9 mps 624 mmHg 20%
    17:00 +29°C° 0 mm 8 mps 624 mmHg 18%
    18:00 +26°C° 0 mm 7 mps 623 mmHg 24%
    19:00 +23°C° 0 mm 5 mps 623 mmHg 29%
    20:00 +21°C° 0 mm 3 mps 623 mmHg 34%
    21:00 +20°C° 0 mm 2 mps 623 mmHg 38%
    22:00 +19°C° 0 mm 2 mps 623 mmHg 42%
    23:00 +19°C° 0 mm 1 mps 623 mmHg 46%

    20 December, Wednesday

    Time Temperature Precipitation Wind Pressure Humidity
    00:00 +19°C° 0 mm 1 mps 623 mmHg 48%
    01:00 +18°C° 0 mm 1 mps 623 mmHg 51%
    02:00 +18°C° 0 mm 1 mps 623 mmHg 53%
    03:00 +18°C° 0.1 mm 1 mps 623 mmHg 54%
    04:00 +16°C° 0.1 mm 1 mps 623 mmHg 56%
    05:00 +16°C° 0.1 mm 1 mps 623 mmHg 57%
    06:00 +18°C° 0.3 mm 2 mps 624 mmHg 58%
    07:00 +19°C° 0.3 mm 3 mps 625 mmHg 58%
    08:00 +20°C° 0.3 mm 3 mps 626 mmHg 59%
    09:00 +21°C° 0.3 mm 4 mps 626 mmHg 59%
    10:00 +21°C° 0.3 mm 4 mps 626 mmHg 58%
    11:00 +22°C° 0.3 mm 4 mps 626 mmHg 58%
    12:00 +22°C° 0.1 mm 4 mps 626 mmHg 56%
    13:00 +23°C° 0.1 mm 5 mps 626 mmHg 54%
    14:00 +23°C° 0.1 mm 5 mps 626 mmHg 52%
    15:00 +22°C° 0 mm 5 mps 625 mmHg 54%
    16:00 +22°C° 0 mm 5 mps 625 mmHg 56%
    17:00 +21°C° 0 mm 5 mps 624 mmHg 59%
    18:00 +20°C° 0.1 mm 4 mps 624 mmHg 63%
    19:00 +19°C° 0.1 mm 3 mps 624 mmHg 67%
    20:00 +18°C° 0.1 mm 2 mps 624 mmHg 71%
    21:00 +18°C° 0.3 mm 2 mps 624 mmHg 72%
    22:00 +18°C° 0.3 mm 2 mps 625 mmHg 73%
    23:00 +19°C° 0.3 mm 1 mps 625 mmHg 73%
    Show more